,,,PA_Meas_PMT16A,,PR_Meas_QMR101_102,,RH_Meas_QMH101,,SR_Meas_QMS101,,TA_Meas_QMH101,,GenWind,,GenWind,
date,time,status,PA,status,PR,status,RH,status,SR,status,TA,status,DirAvg,status,SpdAvg,
2010-04-07, 00:00:04,VALID,1005.87,VALID,0,VALID,95.3991,VALID,0,VALID,25.5727,VALID,304,VALID,0.326562,
2010-04-07, 00:01:04,VALID,1005.83,VALID,0,VALID,95.3991,VALID,0,VALID,25.5921,VALID,304,VALID,0.283984,
2010-04-07, 00:02:04,VALID,1005.82,VALID,0,VALID,95.361,VALID,0,VALID,25.5727,VALID,304,VALID,0.234766,
2010-04-07, 00:03:04,VALID,1005.79,VALID,0,VALID,95.361,VALID,0,VALID,25.5921,VALID,304,VALID,0.174219,
2010-04-07, 00:04:04,VALID,1005.77,VALID,0,VALID,95.3305,VALID,0,VALID,25.5921,VALID,304,VALID,0.227344,
2010-04-07, 00:05:04,VALID,1005.76,VALID,0,VALID,95.3152,VALID,0,VALID,25.5921,VALID,304,VALID,0.212109,
2010-04-07, 00:06:04,VALID,1005.76,VALID,0,VALID,95.3381,VALID,0,VALID,25.6116,VALID,304,VALID,0.403906,
2010-04-07, 00:07:04,VALID,1005.74,VALID,0,VALID,95.2923,VALID,0,VALID,25.5921,VALID,304,VALID,0.300391,
2010-04-07, 00:08:04,VALID,1005.76,VALID,0,VALID,95.2771,VALID,0,VALID,25.5921,VALID,304,VALID,0.285547,
2010-04-07, 00:09:04,VALID,1005.74,VALID,0,VALID,95.2695,VALID,0,VALID,25.5513,VALID,304,VALID,0.31875,
2010-04-07, 00:10:04,VALID,1005.78,VALID,0,VALID,95.2389,VALID,0,VALID,25.5318,VALID,304,VALID,0.351953,
2010-04-07, 00:11:04,VALID,1005.77,VALID,0,VALID,95.2313,VALID,0,VALID,25.5532,VALID,304,VALID,0.299609,
2010-04-07, 00:12:04,VALID,1005.77,VALID,0,VALID,95.2313,VALID,0.100563,VALID,25.5746,VALID,304,VALID,0.256641,
2010-04-07, 00:13:04,VALID,1005.78,VALID,0,VALID,95.2237,VALID,0,VALID,25.5123,VALID,304,VALID,0.277344,
2010-04-07, 00:14:04,VALID,1005.79,VALID,0,VALID,95.2237,VALID,0,VALID,25.5337,VALID,304,VALID,0.315234,
2010-04-07, 00:15:04,VALID,1005.81,VALID,0,VALID,95.2389,VALID,0,VALID,25.5337,VALID,304,VALID,0.3,
2010-04-07, 00:16:04,VALID,1005.78,VALID,0,VALID,95.2542,VALID,0,VALID,25.5337,VALID,304,VALID,0.167969,
2010-04-07, 00:17:04,VALID,1005.78,VALID,0,VALID,95.2542,VALID,0,VALID,25.5142,VALID,304,VALID,0.309766,
2010-04-07, 00:18:04,VALID,1005.76,VALID,0,VALID,95.2771,VALID,0,VALID,25.5142,VALID,304,VALID,0.320313,
2010-04-07, 00:19:04,VALID,1005.75,VALID,0,VALID,95.2923,VALID,0,VALID,25.5142,VALID,304,VALID,0.265234,
2010-04-07, 00:20:04,VALID,1005.72,VALID,0,VALID,95.3,VALID,0,VALID,25.4928,VALID,304,VALID,0.376953,
2010-04-07, 00:21:04,VALID,1005.71,VALID,0,VALID,95.3076,VALID,0,VALID,25.4734,VALID,304,VALID,0.181641,
2010-04-07, 00:22:04,VALID,1005.68,VALID,0,VALID,95.3,VALID,0,VALID,25.4948,VALID,304,VALID,0.153125,
2010-04-07, 00:23:04,VALID,1005.65,VALID,0,VALID,95.3076,VALID,0,VALID,25.4753,VALID,304,VALID,0,
2010-04-07, 00:24:04,VALID,1005.63,VALID,0,VALID,95.3457,VALID,0,VALID,25.4753,VALID,304,VALID,0.09375,
2010-04-07, 00:25:04,VALID,1005.62,VALID,0,VALID,95.3381,VALID,0,VALID,25.4753,VALID,304,VALID,0.178516,
2010-04-07, 00:26:04,VALID,1005.62,VALID,0,VALID,95.3381,VALID,0,VALID,25.5162,VALID,304,VALID,0.310937,
2010-04-07, 00:27:04,VALID,1005.61,VALID,0,VALID,95.3534,VALID,0,VALID,25.4948,VALID,304,VALID,0.414844,
2010-04-07, 00:28:04,VALID,1005.63,VALID,0,VALID,95.3686,VALID,0,VALID,25.4753,VALID,304,VALID,0.356641,
2010-04-07, 00:29:04,VALID,1005.57,VALID,0,VALID,95.3915,VALID,0,VALID,25.4967,VALID,304,VALID,0.341016,
2010-04-07, 00:30:04,VALID,1005.57,VALID,0,VALID,95.3839,VALID,0,VALID,25.4753,VALID,304,VALID,0.210547,
2010-04-07, 00:31:04,VALID,1005.56,VALID,0,VALID,95.4297,VALID,0,VALID,25.4753,VALID,304,VALID,0.258203,
2010-04-07, 00:32:04,VALID,1005.51,VALID,0,VALID,95.4449,VALID,0,VALID,25.4753,VALID,304,VALID,0.075,
2010-04-07, 00:33:04,VALID,1005.5,VALID,0,VALID,95.4297,VALID,0,VALID,25.4753,VALID,304,VALID,0,
2010-04-07, 00:34:04,VALID,1005.48,VALID,0,VALID,95.4754,VALID,0,VALID,25.4753,VALID,304,VALID,0,
2010-04-07, 00:35:04,VALID,1005.46,VALID,0,VALID,95.4983,VALID,0,VALID,25.4753,VALID,304,VALID,0,
2010-04-07, 00:36:04,VALID,1005.46,VALID,0,VALID,95.4907,VALID,0,VALID,25.4558,VALID,304,VALID,0,
2010-04-07, 00:37:04,VALID,1005.43,VALID,0,VALID,95.4907,VALID,0,VALID,25.4967,VALID,304,VALID,0,
2010-04-07, 00:38:04,VALID,1005.43,VALID,0,VALID,95.5136,VALID,0,VALID,25.4539,VALID,304,VALID,0,
2010-04-07, 00:39:04,VALID,1005.43,VALID,0,VALID,95.506,VALID,0,VALID,25.4753,VALID,304,VALID,0,
2010-04-07, 00:40:04,VALID,1005.41,VALID,0,VALID,95.5136,VALID,0,VALID,25.4753,VALID,304,VALID,0,
2010-04-07, 00:41:04,VALID,1005.38,VALID,0,VALID,95.5212,VALID,0,VALID,25.4753,VALID,304,VALID,0,
2010-04-07, 00:42:04,VALID,1005.38,VALID,0,VALID,95.5365,VALID,0,VALID,25.4967,VALID,304,VALID,0,
2010-04-07, 00:43:04,VALID,1005.35,VALID,0,VALID,95.5441,VALID,0,VALID,25.4948,VALID,304,VALID,0,
2010-04-07, 00:44:04,VALID,1005.33,VALID,0,VALID,95.5594,VALID,0,VALID,25.4948,VALID,304,VALID,0,
2010-04-07, 00:45:04,VALID,1005.28,VALID,0,VALID,95.567,VALID,0,VALID,25.5551,VALID,304,VALID,0,
2010-04-07, 00:46:04,VALID,1005.27,VALID,0,VALID,95.5746,VALID,0,VALID,25.5142,VALID,304,VALID,0,
2010-04-07, 00:47:04,VALID,1005.23,VALID,0,VALID,95.5822,VALID,0,VALID,25.4928,VALID,304,VALID,0,
2010-04-07, 00:48:04,VALID,1005.22,VALID,0,VALID,95.5975,VALID,0,VALID,25.5142,VALID,304,VALID,0,
2010-04-07, 00:49:04,VALID,1005.2,VALID,0,VALID,95.6204,VALID,0,VALID,25.5142,VALID,304,VALID,0,
2010-04-07, 00:50:04,VALID,1005.17,VALID,0,VALID,95.6051,VALID,0,VALID,25.5142,VALID,304,VALID,0,
2010-04-07, 00:51:04,VALID,1005.15,VALID,0,VALID,95.6204,VALID,0,VALID,25.4734,VALID,304,VALID,0,
2010-04-07, 00:52:04,VALID,1005.1,VALID,0,VALID,95.5975,VALID,0,VALID,25.4948,VALID,304,VALID,0,
2010-04-07, 00:53:04,VALID,1005.13,VALID,0,VALID,95.5899,VALID,0,VALID,25.4948,VALID,304,VALID,0,
2010-04-07, 00:54:04,VALID,1005.08,VALID,0,VALID,95.5822,VALID,0,VALID,25.4948,VALID,304,VALID,0,
2010-04-07, 00:55:04,VALID,1005.05,VALID,0,VALID,95.5822,VALID,0,VALID,25.4948,VALID,304,VALID,0,
2010-04-07, 00:56:04,VALID,1005.04,VALID,0,VALID,95.5822,VALID,0,VALID,25.4948,VALID,304,VALID,0,
2010-04-07, 00:57:04,VALID,1005.01,VALID,0,VALID,95.5746,VALID,0,VALID,25.4967,VALID,304,VALID,0,
2010-04-07, 00:58:04,VALID,1004.98,VALID,0,VALID,95.5899,VALID,0,VALID,25.4753,VALID,304,VALID,0,
2010-04-07, 00:59:04,VALID,1004.97,VALID,0,VALID,95.567,VALID,0,VALID,25.4948,VALID,304,VALID,0,
2010-04-07, 01:00:04,VALID,1004.97,VALID,0,VALID,95.5594,VALID,0,VALID,25.4948,VALID,304,VALID,0,
2010-04-07, 01:01:04,VALID,1004.97,VALID,0,VALID,95.5517,VALID,0,VALID,25.4734,VALID,304,VALID,0,
2010-04-07, 01:02:04,VALID,1004.94,VALID,0,VALID,95.5746,VALID,0,VALID,25.4753,VALID,304,VALID,0,
2010-04-07, 01:03:04,VALID,1004.92,VALID,0,VALID,95.5594,VALID,0,VALID,25.4539,VALID,304,VALID,0,
2010-04-07, 01:04:04,VALID,1004.9,VALID,0,VALID,95.5822,VALID,0.100563,VALID,25.4539,VALID,304,VALID,0,
2010-04-07, 01:05:04,VALID,1004.88,VALID,0,VALID,95.5899,VALID,0,VALID,25.4539,VALID,304,VALID,0,
2010-04-07, 01:06:04,VALID,1004.89,VALID,0,VALID,95.5975,VALID,0,VALID,25.4344,VALID,304,VALID,0,
2010-04-07, 01:07:04,VALID,1004.88,VALID,0,VALID,95.5975,VALID,0.100563,VALID,25.4539,VALID,304,VALID,0,
2010-04-07, 01:08:04,VALID,1004.86,VALID,0,VALID,95.5899,VALID,0,VALID,25.4363,VALID,304,VALID,0,
2010-04-07, 01:09:04,VALID,1004.85,VALID,0,VALID,95.5975,VALID,0,VALID,25.4169,VALID,304,VALID,0,
2010-04-07, 01:10:04,VALID,1004.85,VALID,0,VALID,95.6204,VALID,0.100563,VALID,25.3955,VALID,304,VALID,0,
2010-04-07, 01:11:04,VALID,1004.81,VALID,0,VALID,95.6051,VALID,0.100563,VALID,25.376,VALID,304,VALID,0,
2010-04-07, 01:12:04,VALID,1004.78,VALID,0,VALID,95.628,VALID,0,VALID,25.376,VALID,304,VALID,0,
2010-04-07, 01:13:04,VALID,1004.75,VALID,0,VALID,95.6356,VALID,0.100563,VALID,25.3565,VALID,304,VALID,0,
2010-04-07, 01:14:04,VALID,1004.73,VALID,0,VALID,95.6433,VALID,0.100563,VALID,25.337,VALID,304,VALID,0.426953,
2010-04-07, 01:15:04,VALID,1004.72,VALID,0,VALID,95.6204,VALID,0.100563,VALID,25.3176,VALID,304,VALID,0.465625,
2010-04-07, 01:16:04,VALID,1004.68,VALID,0,VALID,95.628,VALID,0.100563,VALID,25.2981,VALID,304,VALID,0.373828,
2010-04-07, 01:17:04,VALID,1004.66,VALID,0,VALID,95.628,VALID,0.100563,VALID,25.2981,VALID,304,VALID,0.462109,
2010-04-07, 01:18:04,VALID,1004.67,VALID,0,VALID,95.6433,VALID,0.100563,VALID,25.2786,VALID,304,VALID,0.43125,
2010-04-07, 01:19:04,VALID,1004.69,VALID,0,VALID,95.6433,VALID,0.100563,VALID,25.2786,VALID,304,VALID,0.273828,
2010-04-07, 01:20:04,VALID,1004.65,VALID,0,VALID,95.689,VALID,0,VALID,25.2592,VALID,304,VALID,0.25625,
2010-04-07, 01:21:04,VALID,1004.65,VALID,0,VALID,95.689,VALID,0,VALID,25.2806,VALID,304,VALID,0.437891,
2010-04-07, 01:22:04,VALID,1004.65,VALID,0,VALID,95.6814,VALID,0.100563,VALID,25.2397,VALID,304,VALID,0.41875,
2010-04-07, 01:23:04,VALID,1004.65,VALID,0,VALID,95.6967,VALID,0.100563,VALID,25.2611,VALID,304,VALID,0.471484,
2010-04-07, 01:24:04,VALID,1004.67,VALID,0,VALID,95.7119,VALID,0,VALID,25.2786,VALID,319,VALID,0.529297,
2010-04-07, 01:25:04,VALID,1004.67,VALID,0,VALID,95.7348,VALID,0,VALID,25.2981,VALID,346,VALID,0.547656,
2010-04-07, 01:26:04,VALID,1004.64,VALID,0,VALID,95.7348,VALID,0.100563,VALID,25.2962,VALID,349,VALID,0.680078,
2010-04-07, 01:27:04,VALID,1004.67,VALID,0,VALID,95.7424,VALID,0.100563,VALID,25.3176,VALID,360,VALID,0.698047,
2010-04-07, 01:28:04,VALID,1004.66,VALID,0,VALID,95.7577,VALID,0.100563,VALID,25.376,VALID,355,VALID,0.804688,
2010-04-07, 01:29:04,VALID,1004.69,VALID,0,VALID,95.8035,VALID,0.100563,VALID,25.3955,VALID,354,VALID,0.563672,
2010-04-07, 01:30:04,VALID,1004.66,VALID,0,VALID,95.773,VALID,0.100563,VALID,25.4149,VALID,354,VALID,0.354297,
2010-04-07, 01:31:04,VALID,1004.71,VALID,0,VALID,95.8111,VALID,0,VALID,25.3955,VALID,354,VALID,0.450781,
2010-04-07, 01:32:04,VALID,1004.71,VALID,0,VALID,95.8187,VALID,0,VALID,25.4149,VALID,351,VALID,0.505078,
2010-04-07, 01:33:04,VALID,1004.69,VALID,0,VALID,95.8264,VALID,0.100563,VALID,25.4363,VALID,346,VALID,0.415625,
2010-04-07, 01:34:04,VALID,1004.68,VALID,0,VALID,95.8187,VALID,0.100563,VALID,25.4149,VALID,348,VALID,0.541016,
2010-04-07, 01:35:04,VALID,1004.69,VALID,0,VALID,95.834,VALID,0.100563,VALID,25.4149,VALID,348,VALID,0.450781,
2010-04-07, 01:36:04,VALID,1004.69,VALID,0,VALID,95.834,VALID,0.100563,VALID,25.4149,VALID,350,VALID,0.605078,
2010-04-07, 01:37:04,VALID,1004.68,VALID,0,VALID,95.834,VALID,0.100563,VALID,25.4149,VALID,350,VALID,0.244141,
2010-04-07, 01:38:04,VALID,1004.69,VALID,0,VALID,95.834,VALID,0.100563,VALID,25.3955,VALID,356,VALID,0.442187,
2010-04-07, 01:39:04,VALID,1004.68,VALID,0,VALID,95.8187,VALID,0,VALID,25.4149,VALID,349,VALID,1.01836,
2010-04-07, 01:40:04,VALID,1004.71,VALID,0,VALID,95.8187,VALID,0.100563,VALID,25.4539,VALID,18,VALID,0.572656,
2010-04-07, 01:41:04,VALID,1004.7,VALID,0,VALID,95.8111,VALID,0,VALID,25.5142,VALID,18,VALID,0.562109,
2010-04-07, 01:42:04,VALID,1004.71,VALID,0,VALID,95.8111,VALID,0,VALID,25.5123,VALID,23,VALID,0.281641,
2010-04-07, 01:43:04,VALID,1004.7,VALID,0,VALID,95.8264,VALID,0.100563,VALID,25.5513,VALID,358,VALID,0.609766,
2010-04-07, 01:44:04,VALID,1004.71,VALID,0,VALID,95.8187,VALID,0,VALID,25.5902,VALID,23,VALID,1.71563,
2010-04-07, 01:45:04,VALID,1004.7,VALID,0,VALID,95.7653,VALID,0,VALID,25.6506,VALID,11,VALID,0.623828,
2010-04-07, 01:46:04,VALID,1004.7,VALID,0,VALID,95.7348,VALID,0,VALID,25.7109,VALID,33,VALID,0.850781,
2010-04-07, 01:47:04,VALID,1004.67,VALID,0,VALID,95.6356,VALID,0,VALID,25.7285,VALID,8,VALID,0.765234,
2010-04-07, 01:48:04,VALID,1004.68,VALID,0,VALID,95.5441,VALID,0,VALID,25.7889,VALID,23,VALID,0.803125,
2010-04-07, 01:49:04,VALID,1004.69,VALID,0,VALID,95.3763,VALID,0,VALID,25.8473,VALID,12,VALID,0.486328,
2010-04-07, 01:50:04,VALID,1004.64,VALID,0,VALID,95.2008,VALID,0,VALID,25.8259,VALID,5,VALID,0.494922,
2010-04-07, 01:51:04,VALID,1004.62,VALID,0,VALID,94.9872,VALID,0,VALID,25.8648,VALID,21,VALID,0.956641,
2010-04-07, 01:52:04,VALID,1004.59,VALID,0,VALID,94.7354,VALID,0,VALID,25.9038,VALID,28,VALID,0.513281,
2010-04-07, 01:53:04,VALID,1004.55,VALID,0,VALID,94.5066,VALID,0,VALID,25.9252,VALID,23,VALID,0.75625,
2010-04-07, 01:54:04,VALID,1004.54,VALID,0,VALID,94.2472,VALID,0,VALID,25.9427,VALID,44,VALID,0.914063,
2010-04-07, 01:55:04,VALID,1004.53,VALID,0,VALID,93.9878,VALID,0,VALID,25.9427,VALID,360,VALID,1.25898,
2010-04-07, 01:56:04,VALID,1004.47,VALID,0,VALID,93.5987,VALID,0,VALID,25.9817,VALID,16,VALID,0.936328,
2010-04-07, 01:57:04,VALID,1004.47,VALID,0,VALID,93.2554,VALID,0,VALID,26.0012,VALID,7,VALID,0.780859,
2010-04-07, 01:58:04,VALID,1004.43,VALID,0,VALID,93.0037,VALID,0,VALID,26.0012,VALID,19,VALID,0.678906,
2010-04-07, 01:59:04,VALID,1004.43,VALID,0,VALID,92.6146,VALID,0,VALID,26.0031,VALID,24,VALID,1.16836,
2010-04-07, 02:00:04,VALID,1004.41,VALID,0,VALID,92.3629,VALID,0,VALID,26.0012,VALID,1,VALID,0.642187,
2010-04-07, 02:01:04,VALID,1004.37,VALID,0,VALID,92.0577,VALID,0,VALID,26.0421,VALID,5,VALID,0.817969,
2010-04-07, 02:02:04,VALID,1004.33,VALID,0,VALID,91.7373,VALID,0,VALID,26.0012,VALID,323,VALID,0.925391,
2010-04-07, 02:03:04,VALID,1004.33,VALID,0,VALID,91.8365,VALID,0,VALID,26.0012,VALID,283,VALID,0.866406,
2010-04-07, 02:04:04,VALID,1004.29,VALID,0,VALID,92.0653,VALID,0,VALID,26.0421,VALID,332,VALID,0.789844,
2010-04-07, 02:05:04,VALID,1004.29,VALID,0,VALID,91.9738,VALID,0,VALID,26.0206,VALID,280,VALID,0.817578,
2010-04-07, 02:06:04,VALID,1004.25,VALID,0,VALID,91.8136,VALID,0,VALID,25.9836,VALID,296,VALID,0.679297,
2010-04-07, 02:07:04,VALID,1004.23,VALID,0,VALID,91.9204,VALID,0,VALID,25.9622,VALID,296,VALID,0.0417969,
2010-04-07, 02:08:04,VALID,1004.19,VALID,0,VALID,92.0272,VALID,0,VALID,25.9427,VALID,296,VALID,0.0582031,
2010-04-07, 02:09:04,VALID,1004.19,VALID,0,VALID,92.134,VALID,0,VALID,25.9232,VALID,296,VALID,0.21875,
2010-04-07, 02:10:04,VALID,1004.17,VALID,0,VALID,92.0577,VALID,0,VALID,25.9252,VALID,296,VALID,0.302734,
2010-04-07, 02:11:04,VALID,1004.17,VALID,0,VALID,91.9585,VALID,0,VALID,25.8629,VALID,301,VALID,0.244141,
2010-04-07, 02:12:04,VALID,1004.17,VALID,0,VALID,91.6534,VALID,0,VALID,25.8453,VALID,290,VALID,1.02891,
2010-04-07, 02:13:04,VALID,1004.13,VALID,0,VALID,91.3711,VALID,0,VALID,25.8453,VALID,283,VALID,0.423438,
2010-04-07, 02:14:04,VALID,1004.13,VALID,0,VALID,91.4016,VALID,0,VALID,25.8259,VALID,346,VALID,0.15,
2010-04-07, 02:15:04,VALID,1004.14,VALID,0,VALID,91.3711,VALID,0.100563,VALID,25.8239,VALID,346,VALID,0,
2010-04-07, 02:16:04,VALID,1004.14,VALID,0,VALID,91.3253,VALID,0.100563,VALID,25.785,VALID,345,VALID,0.254687,
2010-04-07, 02:17:04,VALID,1004.12,VALID,0,VALID,91.4779,VALID,0.100563,VALID,25.785,VALID,345,VALID,0.0769531,
2010-04-07, 02:18:04,VALID,1004.1,VALID,0,VALID,91.4855,VALID,0,VALID,25.7674,VALID,345,VALID,0.00820312,
2010-04-07, 02:19:04,VALID,1004.1,VALID,0,VALID,91.661,VALID,0.100563,VALID,25.7265,VALID,344,VALID,0.108984,
2010-04-07, 02:20:04,VALID,1004.08,VALID,0,VALID,91.8288,VALID,0.100563,VALID,25.7071,VALID,302,VALID,0,
2010-04-07, 02:21:04,VALID,1004.08,VALID,0,VALID,91.8975,VALID,0.100563,VALID,25.6895,VALID,302,VALID,0,
2010-04-07, 02:22:04,VALID,1004.06,VALID,0,VALID,92.0424,VALID,0.100563,VALID,25.6486,VALID,337,VALID,0.46875,
2010-04-07, 02:23:04,VALID,1004.06,VALID,0,VALID,92.0196,VALID,0.100563,VALID,25.6097,VALID,358,VALID,0.622266,
2010-04-07, 02:24:04,VALID,1004.07,VALID,0,VALID,92.1111,VALID,0.100563,VALID,25.5707,VALID,330,VALID,0.421094,
2010-04-07, 02:25:04,VALID,1004.06,VALID,0,VALID,92.3247,VALID,0,VALID,25.5513,VALID,330,VALID,0.281641,
2010-04-07, 02:26:04,VALID,1004.06,VALID,0,VALID,92.5002,VALID,0,VALID,25.5337,VALID,330,VALID,0.205469,
2010-04-07, 02:27:04,VALID,1004.06,VALID,0,VALID,92.607,VALID,0.100563,VALID,25.5142,VALID,330,VALID,0.120703,
2010-04-07, 02:28:04,VALID,1004.12,VALID,0,VALID,92.7672,VALID,0,VALID,25.4539,VALID,330,VALID,0.0117188,
2010-04-07, 02:29:04,VALID,1004.07,VALID,0,VALID,92.9426,VALID,0,VALID,25.4558,VALID,330,VALID,0.0269531,
2010-04-07, 02:30:04,VALID,1004.1,VALID,0,VALID,93.0647,VALID,0.100563,VALID,25.4363,VALID,330,VALID,0,
2010-04-07, 02:31:04,VALID,1004.12,VALID,0,VALID,93.1944,VALID,0.100563,VALID,25.376,VALID,330,VALID,0,
2010-04-07, 02:32:04,VALID,1004.15,VALID,0,VALID,93.3394,VALID,0.100563,VALID,25.376,VALID,330,VALID,0,
2010-04-07, 02:33:04,VALID,1004.15,VALID,0,VALID,93.4996,VALID,0.100563,VALID,25.3565,VALID,330,VALID,0,
2010-04-07, 02:34:04,VALID,1004.17,VALID,0,VALID,93.6064,VALID,0,VALID,25.3779,VALID,330,VALID,0,
2010-04-07, 02:35:04,VALID,1004.15,VALID,0,VALID,93.7055,VALID,0.100563,VALID,25.3584,VALID,330,VALID,0,
2010-04-07, 02:36:04,VALID,1004.13,VALID,0,VALID,93.8276,VALID,0,VALID,25.3565,VALID,330,VALID,0,
2010-04-07, 02:37:04,VALID,1004.13,VALID,0,VALID,93.942,VALID,0,VALID,25.3176,VALID,330,VALID,0,
2010-04-07, 02:38:04,VALID,1004.16,VALID,0,VALID,94.0183,VALID,0,VALID,25.3176,VALID,330,VALID,0,
2010-04-07, 02:39:04,VALID,1004.17,VALID,0,VALID,94.0565,VALID,0,VALID,25.2981,VALID,330,VALID,0,
2010-04-07, 02:40:04,VALID,1004.19,VALID,0,VALID,94.1022,VALID,0,VALID,25.2981,VALID,330,VALID,0,
2010-04-07, 02:41:04,VALID,1004.21,VALID,0,VALID,94.1404,VALID,0,VALID,25.2786,VALID,330,VALID,0.0621094,
2010-04-07, 02:42:04,VALID,1004.28,VALID,0,VALID,94.1938,VALID,0,VALID,25.3,VALID,330,VALID,0.401563,
2010-04-07, 02:43:04,VALID,1004.27,VALID,0,VALID,94.2014,VALID,0,VALID,25.2397,VALID,330,VALID,0,
2010-04-07, 02:44:04,VALID,1004.3,VALID,0,VALID,94.2472,VALID,0.100563,VALID,25.2592,VALID,330,VALID,0,
2010-04-07, 02:45:04,VALID,1004.31,VALID,0,VALID,94.293,VALID,0.100563,VALID,25.2397,VALID,330,VALID,0.155859,
2010-04-07, 02:46:04,VALID,1004.3,VALID,0,VALID,94.354,VALID,0.100563,VALID,25.2611,VALID,330,VALID,0.0234375,
2010-04-07, 02:47:04,VALID,1004.32,VALID,0,VALID,94.3845,VALID,0.100563,VALID,25.2397,VALID,330,VALID,0.190625,
2010-04-07, 02:48:04,VALID,1004.34,VALID,0,VALID,94.4455,VALID,0.100563,VALID,25.2202,VALID,330,VALID,0.350391,
2010-04-07, 02:49:04,VALID,1004.35,VALID,0,VALID,94.4913,VALID,0,VALID,25.2027,VALID,330,VALID,0.313281,
2010-04-07, 02:50:04,VALID,1004.36,VALID,0,VALID,94.5447,VALID,0,VALID,25.1813,VALID,330,VALID,0.337891,
2010-04-07, 02:51:04,VALID,1004.36,VALID,0,VALID,94.5905,VALID,0.100563,VALID,25.1618,VALID,330,VALID,0.340625,
2010-04-07, 02:52:04,VALID,1004.38,VALID,0,VALID,94.6668,VALID,0.100563,VALID,25.1618,VALID,330,VALID,0.403906,
2010-04-07, 02:53:04,VALID,1004.38,VALID,0,VALID,94.7354,VALID,0.100563,VALID,25.1423,VALID,330,VALID,0.406641,
2010-04-07, 02:54:04,VALID,1004.39,VALID,0,VALID,94.8041,VALID,0.100563,VALID,25.1423,VALID,332,VALID,0.610547,
2010-04-07, 02:55:04,VALID,1004.4,VALID,0,VALID,94.8651,VALID,0.100563,VALID,25.1423,VALID,2,VALID,0.660547,
2010-04-07, 02:56:04,VALID,1004.42,VALID,0,VALID,94.8956,VALID,0,VALID,25.1423,VALID,3,VALID,0.367578,
2010-04-07, 02:57:04,VALID,1004.4,VALID,0,VALID,94.9643,VALID,0.100563,VALID,25.1423,VALID,3,VALID,0.308594,
2010-04-07, 02:58:04,VALID,1004.41,VALID,0,VALID,95.0177,VALID,0,VALID,25.1442,VALID,3,VALID,0.00117188,
2010-04-07, 02:59:04,VALID,1004.44,VALID,0,VALID,95.0482,VALID,0,VALID,25.1229,VALID,3,VALID,0.0839844,
2010-04-07, 03:00:04,VALID,1004.45,VALID,0,VALID,95.094,VALID,0,VALID,25.1442,VALID,229,VALID,0.595703,
2010-04-07, 03:01:04,VALID,1004.53,VALID,0,VALID,95.1093,VALID,0,VALID,25.1442,VALID,228,VALID,1.31953,
2010-04-07, 03:02:04,VALID,1004.53,VALID,0,VALID,95.1779,VALID,0,VALID,25.1851,VALID,218,VALID,0.709766,
2010-04-07, 03:03:04,VALID,1004.52,VALID,0,VALID,95.2008,VALID,0,VALID,25.1637,VALID,210,VALID,1.53086,
2010-04-07, 03:04:04,VALID,1004.54,VALID,0,VALID,95.2237,VALID,0,VALID,25.224,VALID,222,VALID,0.294922,
2010-04-07, 03:05:04,VALID,1004.55,VALID,0,VALID,95.2389,VALID,0,VALID,25.2416,VALID,205,VALID,0.762109,
2010-04-07, 03:06:04,VALID,1004.54,VALID,0,VALID,95.2542,VALID,0,VALID,25.3,VALID,179,VALID,0.896094,
2010-04-07, 03:07:04,VALID,1004.57,VALID,0,VALID,95.2466,VALID,0,VALID,25.3993,VALID,215,VALID,1.2832,
2010-04-07, 03:08:04,VALID,1004.55,VALID,0,VALID,95.2008,VALID,0,VALID,25.4363,VALID,210,VALID,0.740234,
2010-04-07, 03:09:04,VALID,1004.55,VALID,0,VALID,95.1169,VALID,0,VALID,25.4967,VALID,201,VALID,1.20078,
2010-04-07, 03:10:04,VALID,1004.53,VALID,0,VALID,94.9948,VALID,0,VALID,25.5337,VALID,218,VALID,1.20352,
2010-04-07, 03:11:04,VALID,1004.53,VALID,0,VALID,94.8499,VALID,0,VALID,25.5727,VALID,195,VALID,0.896094,
2010-04-07, 03:12:04,VALID,1004.55,VALID,0,VALID,94.6973,VALID,0,VALID,25.633,VALID,222,VALID,0.370313,
2010-04-07, 03:13:04,VALID,1004.54,VALID,0,VALID,94.5295,VALID,0,VALID,25.633,VALID,164,VALID,0.728516,
2010-04-07, 03:14:04,VALID,1004.53,VALID,0,VALID,94.3158,VALID,0,VALID,25.6116,VALID,191,VALID,1.49258,
2010-04-07, 03:15:04,VALID,1004.52,VALID,0,VALID,94.0717,VALID,0.100563,VALID,25.6097,VALID,168,VALID,1.77656,
2010-04-07, 03:16:04,VALID,1004.51,VALID,0,VALID,93.881,VALID,0,VALID,25.5902,VALID,139,VALID,1.82031,
2010-04-07, 03:17:04,VALID,1004.46,VALID,0,VALID,93.6292,VALID,0,VALID,25.5493,VALID,112,VALID,0.940234,
2010-04-07, 03:18:04,VALID,1004.48,VALID,0,VALID,93.6292,VALID,0,VALID,25.5902,VALID,136,VALID,0.649219,
2010-04-07, 03:19:04,VALID,1004.48,VALID,0,VALID,93.469,VALID,0,VALID,25.5921,VALID,162,VALID,0.578906,
2010-04-07, 03:20:04,VALID,1004.46,VALID,0,VALID,93.408,VALID,0,VALID,25.5707,VALID,114,VALID,0.448047,
2010-04-07, 03:21:04,VALID,1004.44,VALID,0,VALID,93.5224,VALID,0,VALID,25.5902,VALID,168,VALID,0.458594,
2010-04-07, 03:22:04,VALID,1004.42,VALID,0,VALID,93.5377,VALID,0,VALID,25.6116,VALID,168,VALID,0,
2010-04-07, 03:23:04,VALID,1004.44,VALID,0,VALID,93.5377,VALID,0,VALID,25.5921,VALID,113,VALID,0.248047,
2010-04-07, 03:24:04,VALID,1004.44,VALID,0,VALID,93.4538,VALID,0.100563,VALID,25.5707,VALID,116,VALID,0.736328,
2010-04-07, 03:25:04,VALID,1004.46,VALID,0,VALID,93.4233,VALID,0,VALID,25.6311,VALID,114,VALID,0.726563,
2010-04-07, 03:26:04,VALID,1004.47,VALID,0,VALID,93.3394,VALID,0,VALID,25.6097,VALID,104,VALID,0.210156,
2010-04-07, 03:27:04,VALID,1004.47,VALID,0,VALID,93.3012,VALID,0,VALID,25.6097,VALID,83,VALID,0.374609,
2010-04-07, 03:28:04,VALID,1004.47,VALID,0,VALID,93.3241,VALID,0,VALID,25.6292,VALID,359,VALID,0.812109,
2010-04-07, 03:29:04,VALID,1004.45,VALID,0,VALID,93.3317,VALID,0.100563,VALID,25.6292,VALID,346,VALID,0.497266,
2010-04-07, 03:30:04,VALID,1004.43,VALID,0,VALID,93.4462,VALID,0,VALID,25.6292,VALID,5,VALID,0.559375,
2010-04-07, 03:31:04,VALID,1004.42,VALID,0,VALID,93.3928,VALID,0,VALID,25.6506,VALID,68,VALID,0.692187,
2010-04-07, 03:32:04,VALID,1004.44,VALID,0,VALID,93.4538,VALID,0,VALID,25.6292,VALID,79,VALID,0.262109,
2010-04-07, 03:33:04,VALID,1004.47,VALID,0,VALID,93.4614,VALID,0,VALID,25.6097,VALID,351,VALID,0.433984,
2010-04-07, 03:34:04,VALID,1004.48,VALID,0,VALID,93.5682,VALID,0.100563,VALID,25.6506,VALID,304,VALID,0.685156,
2010-04-07, 03:35:04,VALID,1004.46,VALID,0,VALID,93.6216,VALID,0.100563,VALID,25.6506,VALID,248,VALID,0.397266,
2010-04-07, 03:36:04,VALID,1004.5,VALID,0,VALID,93.5987,VALID,0,VALID,25.6486,VALID,203,VALID,0.40625,
2010-04-07, 03:37:04,VALID,1004.48,VALID,0,VALID,93.5835,VALID,0.100563,VALID,25.6486,VALID,227,VALID,0.949609,
2010-04-07, 03:38:04,VALID,1004.48,VALID,0,VALID,93.4843,VALID,0,VALID,25.67,VALID,253,VALID,0.780469,
2010-04-07, 03:39:04,VALID,1004.51,VALID,0,VALID,93.1944,VALID,0,VALID,25.67,VALID,360,VALID,1.77891,
2010-04-07, 03:40:04,VALID,1004.54,VALID,0,VALID,92.9426,VALID,0,VALID,25.709,VALID,327,VALID,0.755078,
2010-04-07, 03:41:04,VALID,1004.57,VALID,0,VALID,92.8053,VALID,0,VALID,25.7285,VALID,347,VALID,0.719141,
2010-04-07, 03:42:04,VALID,1004.59,VALID,0,VALID,92.6833,VALID,0.100563,VALID,25.7071,VALID,288,VALID,1.59219,
2010-04-07, 03:43:04,VALID,1004.58,VALID,0,VALID,92.5917,VALID,0,VALID,25.746,VALID,296,VALID,0.808594,
2010-04-07, 03:44:04,VALID,1004.61,VALID,0,VALID,92.4391,VALID,0,VALID,25.746,VALID,304,VALID,1.26914,